Voltar ao catálogo

SL-14 R/B

AtivoPO
NORAD 13553·ROCKET BODY·🇷🇺 Russia

Lançado Sep 16, 1982 de Plesetsk Cosmodrome

Loading…

Próximas Passagens (próximas 24 horas)

TLE

AtualizadoSource: Space-Track

Época: Sep 14, 2026, 22:06 UTC

1 13553U 82092B   26257.92145729  .00000287  00000-0  29352-4 0  9991
2 13553  82.5698 324.3409 0021186  37.0381 141.5690 14.86802341357044

Acompanhe SL-14 R/B em tempo real com AllMySat

Download on the App Store